Location: Unspecified
(0.0000°N, 0.0000°E)
Time: 09:45:12
(UTC+00:00)

Amateur Radio Satellites - All Passes

Search period start: 04 August 2015 09:15
Search period end: 05 August 2015 09:15
Location: Unspecified, 0.0000°N, 0.0000°E

Satellite Date Start Highest point End Downlink Frequencies (MHz)
Time Altitude Azimuth
RS-15 04 Aug 09:16:52 09:24:40 17° 243° (WSW) 09:31:12 29.354- 29.394
FUNcube-1 04 Aug 09:18:12 09:22:39 53° 101° (E) 09:27:07 145.935
HO-68 04 Aug 09:18:53 09:24:53 28° 283° (WNW) 09:30:40 435.675
HUMSAT D 04 Aug 09:19:35 09:22:16 17° 100° (E) 09:25:07 437.325/437.525
AAUSAT CUBESAT 2 04 Aug 09:19:50 09:23:16 24° 281° (W) 09:26:36 437.432
CANX-2 04 Aug 09:21:44 09:22:18 10° 279° (W) 09:22:29 2200.000
Oscar 11 04 Aug 09:25:22 09:29:38 61° 281° (W) 09:33:55 145.826/435.025
UWE-3 04 Aug 09:29:02 09:33:42 74° 280° (W) 09:38:21 435.000/436.395/437.385
UKube-1 04 Aug 09:29:44 09:31:11 12° 100° (E) 09:32:56 .
YUBILEINY 04 Aug 09:41:26 09:44:21 13° 83° (E) 09:48:16 435.215
CINEMA 3 04 Aug 09:44:09 09:47:10 15° 280° (W) 09:49:56 145.822/145.860
Cosmos 2491 04 Aug 09:47:02 09:51:59 17° 96° (E) 09:57:37 435.465 / 435.565
50 SAT 04 Aug 09:50:52 09:53:11 16° 100° (E) 09:55:42 437.505
AISAT 04 Aug 09:50:53 09:53:18 15° 101° (E) 09:55:58 437.250
TIGRISAT 04 Aug 09:51:04 09:54:59 37° 79° (E) 09:58:59 435.000
CUBEBUG 2 04 Aug 09:52:06 09:56:10 27° 280° (W) 10:00:07 437.445
ANTELSAT 04 Aug 09:54:10 09:58:13 43° 79° (E) 10:02:21 437.575/2403.000
DX 1 04 Aug 10:00:26 10:04:28 39° 102° (ESE) 10:08:35 434.975-435.025
JUGNU 04 Aug 10:00:30 10:06:13 54° 201° (SSW) 10:11:56 437.505
POLYITAN 1 04 Aug 10:03:50 10:06:27 17° 80° (E) 10:09:14 437.675
AIST 1 04 Aug 10:07:14 10:10:50 26° 95° (E) 10:14:31
SRMSAT 04 Aug 10:09:23 10:15:12 60° 21° (NNE) 10:21:03 437.500
M-CUBED/EXP-1 PRIME 04 Aug 10:16:55 10:18:19 11° 258° (WSW) 10:19:31 437.505
POPSAT HIP 1 04 Aug 10:18:40 10:22:11 27° 79° (E) 10:25:45 437.405
DELFI C3 04 Aug 10:18:53 10:21:26 16° 280° (W) 10:23:48 145.870
QB50P2 04 Aug 10:26:50 10:30:44 37° 79° (E) 10:34:38 145.880/145.840
VELOX 1 04 Aug 10:27:06 10:31:20 47° 102° (ESE) 10:35:37 145.980
AIST 2 04 Aug 10:32:21 10:35:40 23° 247° (WSW) 10:38:52 435.215
ZACube-1 04 Aug 10:36:21 10:38:41 13° 280° (W) 10:40:41 437.345
UNISAT 6 04 Aug 10:45:49 10:49:38 31° 259° (W) 10:53:26 437.425
DUCHIFAT 1 04 Aug 10:47:15 10:51:26 72° 79° (ENE) 10:55:34 145.980
ESTCUBE 1 04 Aug 10:51:48 10:56:14 68° 102° (ESE) 11:00:42 437.505/2401.250
NANOSAT C BR1 04 Aug 10:52:55 10:57:09 90° 274° (W) 11:01:19 145.865
QB50P1 04 Aug 10:53:05 10:57:19 87° 257° (WSW) 11:01:30 145.935-145.965
HUMSAT D 04 Aug 10:54:40 10:57:52 20° 280° (W) 11:00:54 437.325/437.525
UKube-1 04 Aug 11:03:29 11:07:12 27° 281° (W) 11:10:50 .
O/OREOS (USA 219) 04 Aug 11:15:25 11:20:00 81° 75° (ENE) 11:24:36 437.305
50 SAT 04 Aug 11:25:01 11:27:38 16° 280° (W) 11:30:04 437.505
AISAT 04 Aug 11:26:08 11:29:44 24° 281° (W) 11:33:15 437.250
CUBEBUG 1 04 Aug 11:29:07 11:33:14 43° 281° (WNW) 11:37:25 437.445
YUBILEINY 04 Aug 11:32:30 11:41:17 71° 266° (W) 11:50:02 435.215
POLYITAN 1 04 Aug 11:39:14 11:42:14 18° 260° (W) 11:45:03 437.675
Cosmos 2491 04 Aug 11:40:14 11:48:51 56° 274° (W) 11:57:20 435.465 / 435.565
BUGSAT 1 04 Aug 11:40:16 11:43:58 31° 259° (W) 11:47:33 437.445
AIST 1 04 Aug 11:46:41 11:48:23 12° 276° (W) 11:49:45
VERMONT LUNAR 04 Aug 11:49:14 11:51:38 21° 138° (SE) 11:54:05 437.305
TISAT 1 04 Aug 11:50:33 11:54:28 38° 101° (ESE) 11:58:27 437.305
JUGNU 04 Aug 11:51:07 11:55:31 21° 196° (SSW) 11:59:53 437.505
SPROUT 04 Aug 11:51:50 11:56:08 80° 101° (ESE) 12:00:29 437.525
POPSAT HIP 1 04 Aug 11:56:32 11:57:56 11° 260° (W) 11:59:00 437.405
SRMSAT 04 Aug 11:58:42 12:04:25 49° 200° (SSW) 12:10:10 437.500
Cosmos 2504 04 Aug 12:26:11 12:32:27 24° 84° (E) 12:39:01 435.465 / 435.565
BEESAT 04 Aug 12:27:29 12:29:05 12° 100° (E) 12:31:04 436.000
Oscar 19 04 Aug 12:39:09 12:43:49 37° 78° (ENE) 12:48:31 437.125/150
SWISSCUBE 04 Aug 12:46:25 12:50:15 25° 101° (E) 12:54:12 437.505
ITUPSAT 1 04 Aug 13:08:28 13:12:58 44° 102° (ESE) 13:17:30 437.325
VERMONT LUNAR 04 Aug 13:26:11 13:28:15 16° 319° (NW) 13:30:15 437.305
JUGNU 04 Aug 13:43:35 13:45:20 11° 187° (S) 13:47:01 437.505
JAS-2 04 Aug 13:44:33 13:46:27 12° 77° (ENE) 13:48:55 435.910
SRMSAT 04 Aug 13:49:36 13:53:57 20° 195° (SSW) 13:58:15 437.500
KKS-1 04 Aug 13:59:06 14:02:23 21° 101° (E) 14:05:49 437.445
CUSAT 1 04 Aug 14:00:34 14:06:15 35° 87° (E) 14:13:12 437.405
BEESAT 04 Aug 14:02:33 14:06:50 33° 281° (W) 14:11:04 436.000
AO-7 04 Aug 14:04:46 14:06:47 11° 76° (ENE) 14:09:45 29.400- 29.500
Gurwin Techsat 1B 04 Aug 14:05:18 14:10:38 90° 111° (ESE) 14:15:58 435.225
DANDE 04 Aug 14:05:54 14:10:32 24° 88° (E) 14:16:22 436.750
ITAMSAT 1 04 Aug 14:07:12 14:12:27 82° 79° (E) 14:17:41 435.822/435.867
Cosmos 2504 04 Aug 14:16:30 14:24:35 44° 266° (W) 14:32:19 435.465 / 435.565
Oscar 19 04 Aug 14:20:43 14:23:05 13° 259° (W) 14:25:03 437.125/150
SWISSCUBE 04 Aug 14:24:59 14:27:59 16° 281° (W) 14:30:44 437.505
PHONESAT 2.4 04 Aug 14:35:01 14:38:27 71° 317° (NW) 14:41:54 2401.200-2431.200
STARS 04 Aug 14:58:39 15:03:05 77° 101° (E) 15:07:32 437.465
MOZHAYETS 4 04 Aug 15:15:40 15:18:15 15° 100° (E) 15:21:04
HORYU 2 04 Aug 15:17:47 15:22:03 49° 79° (E) 15:26:21 437.375
JAS-2 04 Aug 15:26:08 15:31:19 45° 259° (W) 15:37:00 435.910
ISS 04 Aug 15:35:26 15:36:06 11° 128° (SE) 15:36:58 145.825
KKS-1 04 Aug 15:35:49 15:38:53 17° 280° (W) 15:41:44 437.445
SRMSAT 04 Aug 15:42:14 15:44:00 11° 186° (S) 15:45:42 437.500
CUSAT 1 04 Aug 15:43:25 15:48:50 25° 259° (W) 15:54:45 437.405
DANDE 04 Aug 15:47:56 15:53:24 33° 260° (W) 15:59:59 436.750
AO-7 04 Aug 15:51:12 15:59:34 80° 255° (WSW) 16:07:56 29.400- 29.500
GONETS M04 04 Aug 16:14:58 16:22:59 42° 86° (E) 16:31:12
Cubesat XI-IV 04 Aug 16:49:21 16:50:35 11° 80° (E) 16:52:19 437.490
MOZHAYETS 4 04 Aug 16:51:37 16:55:21 24° 281° (W) 16:58:58
ISS 04 Aug 17:09:50 17:12:27 22° 306° (NW) 17:15:01 145.825
CUBESAT XI-V 04 Aug 17:18:15 17:22:15 30° 101° (E) 17:26:20 437.345
JUGNU 04 Aug 17:22:01 17:25:30 16° 167° (SSE) 17:29:04 437.505
Cosmos 2499 04 Aug 17:24:39 17:31:14 25° 84° (E) 17:38:03 435.465 / 435.565
SRMSAT 04 Aug 17:33:25 17:34:21 10° 176° (S) 17:35:22 437.500
STRAND 1 04 Aug 17:39:30 17:41:24 12° 101° (E) 17:43:43 437.568
CUTE-I 04 Aug 17:40:18 17:45:30 51° 78° (ENE) 17:50:42 437.470
SO-50 04 Aug 18:07:41 18:12:18 53° 67° (ENE) 18:16:48 436.795
GONETS M04 04 Aug 18:12:50 18:19:43 24° 264° (W) 18:26:13
Cubesat XI-IV 04 Aug 18:25:29 18:30:38 46° 258° (WSW) 18:35:45 437.490
PRISM 04 Aug 18:25:35 18:29:18 36° 101° (ESE) 18:33:06 437.425
RS-15 04 Aug 18:43:06 18:53:54 66° 112° (ESE) 19:04:40 29.354- 29.394
PCSat 04 Aug 18:44:16 18:49:35 61° 250° (WSW) 18:54:55 145.827
CUBESAT XI-V 04 Aug 18:57:37 18:59:36 12° 280° (W) 19:01:15 437.345
JUGNU 04 Aug 19:09:38 19:15:02 36° 161° (SSE) 19:20:29 437.505
STRAND 1 04 Aug 19:15:50 19:20:31 37° 282° (WNW) 19:25:10 437.568
Cosmos 2499 04 Aug 19:16:06 19:24:20 43° 266° (W) 19:32:07 435.465 / 435.565
SRMSAT 04 Aug 19:20:41 19:24:31 17° 167° (SSE) 19:28:27 437.500
HO-68 04 Aug 19:23:13 19:28:54 27° 77° (ENE) 19:34:48 435.675
BEESAT 3 04 Aug 19:31:08 19:31:57 11° 114° (ESE) 19:33:04 437.485
GOMX 1 04 Aug 19:33:06 19:37:31 53° 80° (E) 19:41:41 467.674
SEEDS 04 Aug 19:33:09 19:35:11 14° 80° (E) 19:37:30 437.485
CUTE 1.7 + AOD 2 04 Aug 19:40:48 19:44:13 24° 80° (E) 19:47:44 437.475
BRITE-PL 04 Aug 19:41:01 19:45:46 56° 258° (WSW) 19:50:08 437.365/2234.400
CANX-2 04 Aug 19:49:17 19:53:12 38° 79° (E) 19:57:11 2200.000
AAUSAT CUBESAT 2 04 Aug 19:49:57 19:52:03 14° 80° (E) 19:54:25 437.432
CINEMA 3 04 Aug 20:22:54 20:26:52 44° 80° (E) 20:30:49 145.822/145.860
CUBEBUG 2 04 Aug 20:29:27 20:32:18 19° 80° (E) 20:35:18 437.445
BEESAT 2 04 Aug 20:31:31 20:35:30 62° 112° (ESE) 20:39:31 435.950
DOVE 4 04 Aug 20:41:31 20:45:22 30° 259° (WSW) 20:48:59 437.250
M-CUBED/EXP-1 PRIME 04 Aug 20:42:26 20:46:01 25° 103° (ESE) 20:49:29 437.505
DELFI C3 04 Aug 20:44:05 20:46:44 18° 80° (E) 20:49:32 145.870
COMPASS 1 04 Aug 20:45:18 20:49:28 64° 259° (W) 20:53:37 437.405
AIST 2 04 Aug 20:53:21 20:55:54 16° 113° (ESE) 20:58:38 435.215
JUGNU 04 Aug 20:58:10 21:04:10 85° 338° (NNW) 21:10:11 437.505
RS-15 04 Aug 20:59:00 21:06:24 19° 296° (WNW) 21:12:54 29.354- 29.394
BEESAT 3 04 Aug 21:06:22 21:09:47 26° 293° (WNW) 21:13:08 437.485
AUBIESAT-1 04 Aug 21:07:27 21:11:39 47° 104° (ESE) 21:15:35 437.475
SEEDS 04 Aug 21:07:30 21:10:52 22° 260° (W) 21:14:07 437.485
SRMSAT 04 Aug 21:08:37 21:14:11 39° 161° (SSE) 21:19:47 437.500
ZACube-1 04 Aug 21:08:44 21:12:32 36° 79° (E) 21:16:23 437.345
HO-68 04 Aug 21:10:11 21:16:30 33° 257° (WSW) 21:22:38 435.675
CUTE 1.7 + AOD 2 04 Aug 21:17:57 21:20:01 13° 260° (W) 21:21:47 437.475
UNISAT 6 04 Aug 21:23:38 21:26:40 18° 100° (E) 21:29:53 437.425
AAUSAT CUBESAT 2 04 Aug 21:24:16 21:27:32 21° 260° (W) 21:30:41 437.432
HUMSAT D 04 Aug 21:24:48 21:27:36 19° 80° (E) 21:30:35 437.325/437.525
FUNcube-1 04 Aug 21:28:20 21:32:27 72° 79° (E) 21:36:36 145.935
Oscar 11 04 Aug 21:34:22 21:38:31 45° 259° (W) 21:42:38 145.826/435.025
UKube-1 04 Aug 21:37:40 21:40:11 16° 80° (E) 21:42:57 .
UWE-3 04 Aug 21:41:07 21:45:06 47° 259° (W) 21:49:06 435.000/436.395/437.385
50 SAT 04 Aug 21:47:46 21:49:37 14° 80° (E) 21:51:41 437.505
AISAT 04 Aug 22:02:19 22:05:39 22° 79° (E) 22:09:05 437.250
TIGRISAT 04 Aug 22:03:47 22:08:24 62° 101° (E) 22:13:00 435.000
CUBEBUG 2 04 Aug 22:06:20 22:08:53 15° 260° (W) 22:11:13 437.445
CUBEBUG 1 04 Aug 22:06:39 22:07:31 11° 80° (E) 22:08:44 437.445
ANTELSAT 04 Aug 22:07:14 22:11:55 73° 101° (ESE) 22:16:34 437.575/2403.000
POLYITAN 1 04 Aug 22:10:00 22:13:13 21° 101° (E) 22:16:36 437.675
DX 1 04 Aug 22:10:09 22:14:25 55° 78° (ENE) 22:18:39 434.975-435.025
YUBILEINY 04 Aug 22:11:16 22:18:12 28° 95° (E) 22:25:28 435.215
BUGSAT 1 04 Aug 22:11:24 22:11:55 10° 100° (E) 22:12:48 437.445
AIST 1 04 Aug 22:13:38 22:17:29 35° 86° (E) 22:21:27
M-CUBED/EXP-1 PRIME 04 Aug 22:18:06 22:20:37 14° 286° (WNW) 22:22:47 437.505
Cosmos 2491 04 Aug 22:18:11 22:25:49 36° 85° (E) 22:33:44 435.465 / 435.565
DELFI C3 04 Aug 22:19:04 22:21:40 16° 260° (W) 22:24:05 145.870
POPSAT HIP 1 04 Aug 22:24:49 22:28:41 34° 101° (ESE) 22:32:37 437.405
AIST 2 04 Aug 22:31:12 22:34:20 20° 293° (WNW) 22:37:22 435.215
QB50P2 04 Aug 22:33:15 22:37:23 48° 101° (ESE) 22:41:33 145.880/145.840
VELOX 1 04 Aug 22:39:03 22:43:29 71° 78° (ENE) 22:47:51 145.980
JUGNU 04 Aug 22:48:03 22:53:21 32° 342° (NNW) 22:58:37 437.505
DUCHIFAT 1 04 Aug 22:53:07 22:57:23 88° 99° (E) 23:01:41 145.980
SRMSAT 04 Aug 22:57:27 23:03:29 77° 339° (NNW) 23:09:29 437.500
NANOSAT C BR1 04 Aug 22:59:04 23:03:19 73° 280° (W) 23:07:36 145.865
QB50P1 04 Aug 22:59:28 23:03:44 70° 281° (W) 23:08:00 145.935-145.965
UNISAT 6 04 Aug 22:59:36 23:03:19 23° 281° (W) 23:06:52 437.425
HUMSAT D 04 Aug 23:00:40 23:03:14 15° 260° (W) 23:05:34 437.325/437.525
ESTCUBE 1 04 Aug 23:06:05 23:10:39 76° 258° (WSW) 23:15:09 437.505/2401.250
UKube-1 04 Aug 23:12:53 23:16:12 21° 259° (W) 23:19:23 .
VERMONT LUNAR 04 Aug 23:18:42 23:20:13 13° 41° (NE) 23:21:51 437.305
50 SAT 04 Aug 23:21:19 23:24:04 18° 260° (W) 23:26:41 437.505
O/OREOS (USA 219) 04 Aug 23:26:39 23:31:01 57° 285° (WNW) 23:35:24 437.305
AISAT 04 Aug 23:39:15 23:42:05 16° 259° (W) 23:44:41 437.250
CUBEBUG 1 04 Aug 23:39:52 23:43:48 31° 259° (W) 23:47:36 437.445
BUGSAT 1 04 Aug 23:43:37 23:47:15 29° 280° (W) 23:50:53 437.445
POLYITAN 1 04 Aug 23:46:22 23:49:00 15° 280° (W) 23:51:25 437.675
TISAT 1 04 Aug 23:56:24 00:00:25 46° 79° (E) 00:04:26 437.305
SPROUT 05 Aug 00:00:05 00:04:22 77° 259° (WSW) 00:08:37 437.525
YUBILEINY 05 Aug 00:07:04 00:14:53 36° 275° (W) 00:22:30 435.215
Cosmos 2491 05 Aug 00:15:18 00:22:34 28° 265° (W) 00:29:33 435.465 / 435.565
Cosmos 2504 05 Aug 00:30:48 00:35:43 22° 95° (E) 00:41:06 435.465 / 435.565
JUGNU 05 Aug 00:39:39 00:42:59 15° 349° (NNW) 00:46:12 437.505
BEESAT 05 Aug 00:47:32 00:51:16 24° 79° (E) 00:55:09 436.000
SRMSAT 05 Aug 00:47:40 00:52:50 29° 342° (NNW) 00:57:55 437.500
VERMONT LUNAR 05 Aug 00:54:10 00:56:51 26° 222° (SW) 00:59:29 437.305
ITAMSAT 1 05 Aug 01:05:53 01:08:01 13° 101° (E) 01:10:31 435.822/435.867
Gurwin Techsat 1B 05 Aug 01:06:08 01:09:16 17° 101° (E) 01:12:42 435.225
SWISSCUBE 05 Aug 01:07:51 01:12:29 50° 78° (ENE) 01:17:08 437.505
Oscar 19 05 Aug 01:12:18 01:17:29 84° 284° (WNW) 01:22:43 437.125/150
ITUPSAT 1 05 Aug 01:30:38 01:35:29 89° 69° (ENE) 01:40:18 437.325
KKS-1 05 Aug 02:11:18 02:15:10 30° 79° (ENE) 02:19:04 437.445
PHONESAT 2.4 05 Aug 02:12:38 02:16:05 87° 42° (NE) 02:19:32 2401.200-2431.200
Cosmos 2504 05 Aug 02:21:39 02:27:46 33° 275° (W) 02:33:56 435.465 / 435.565
BEESAT 05 Aug 02:25:42 02:29:00 18° 259° (W) 02:32:03 436.000
AO-7 05 Aug 02:27:39 02:33:16 21° 104° (ESE) 02:39:23 29.400- 29.500
SRMSAT 05 Aug 02:39:39 02:42:38 14° 349° (N) 02:45:32 437.500
ITAMSAT 1 05 Aug 02:42:40 02:47:26 37° 282° (WNW) 02:52:08 435.822/435.867
Gurwin Techsat 1B 05 Aug 02:44:27 02:49:08 31° 281° (WNW) 02:53:44 435.225
CUSAT 1 05 Aug 02:47:41 02:51:47 69° 274° (W) 02:54:54 437.405
DANDE 05 Aug 02:56:11 03:01:02 80° 96° (E) 03:04:36 436.750
JAS-2 05 Aug 02:58:03 03:05:40 87° 283° (WNW) 03:12:33 435.910
STARS 05 Aug 03:10:01 03:14:23 73° 258° (WSW) 03:18:43 437.465
HORYU 2 05 Aug 03:30:20 03:34:48 77° 102° (ESE) 03:39:17 437.375
MOZHAYETS 4 05 Aug 03:31:21 03:35:10 26° 80° (E) 03:39:04
KKS-1 05 Aug 03:50:10 03:51:41 11° 260° (W) 03:52:50 437.445
AO-7 05 Aug 04:18:01 04:25:58 50° 285° (WNW) 04:33:50 29.400- 29.500
JUGNU 05 Aug 04:20:55 04:23:12 12° 8° (N) 04:25:33 437.505
ISS 05 Aug 04:42:51 04:45:54 37° 234° (SW) 04:48:56 145.825
GONETS M04 05 Aug 04:48:05 04:56:53 81° 93° (E) 05:05:34
MOZHAYETS 4 05 Aug 05:09:36 05:12:16 15° 260° (W) 05:14:40
Cubesat XI-IV 05 Aug 05:25:35 05:30:16 33° 102° (ESE) 05:35:04 437.490
Cosmos 2499 05 Aug 05:34:36 05:40:14 27° 94° (E) 05:46:19 435.465 / 435.565
CUBESAT XI-V 05 Aug 05:36:15 05:40:52 56° 79° (ENE) 05:45:28 437.345
PCSat 05 Aug 05:38:11 05:42:38 27° 111° (ESE) 05:47:12 145.827
JUGNU 05 Aug 06:08:18 06:12:58 24° 17° (NNE) 06:17:41 437.505
STRAND 1 05 Aug 06:09:43 06:14:16 32° 79° (ENE) 06:18:51 437.568
CUTE-I 05 Aug 06:19:40 06:24:50 54° 282° (WNW) 06:30:01 437.470
SO-50 05 Aug 06:20:13 06:24:44 83° 292° (WNW) 06:29:23 436.795
SRMSAT 05 Aug 06:20:40 06:23:11 13° 10° (N) 06:25:46 437.500
RS-15 05 Aug 06:23:54 06:35:41 58° 68° (ENE) 06:47:40 29.354- 29.394
PRISM 05 Aug 06:28:57 06:32:55 42° 79° (E) 06:36:53 437.425
BRITE-PL 05 Aug 06:29:43 06:32:59 18° 102° (ESE) 06:36:39 437.365/2234.400
Cubesat XI-IV 05 Aug 07:07:05 07:10:17 15° 281° (W) 07:13:10 437.490
HO-68 05 Aug 07:15:12 07:20:23 23° 103° (ESE) 07:25:54 435.675
PCSat 05 Aug 07:22:00 07:25:56 20° 291° (WNW) 07:29:39 145.827
DOVE 4 05 Aug 07:23:57 07:28:03 25° 101° (E) 07:32:24 437.250
BEESAT 3 05 Aug 07:25:00 07:26:07 11° 65° (ENE) 07:27:29 437.485
Cosmos 2499 05 Aug 07:27:11 07:33:15 29° 276° (W) 07:39:17 435.465 / 435.565
SEEDS 05 Aug 07:38:21 07:40:57 17° 100° (E) 07:43:43 437.485
CUTE 1.7 + AOD 2 05 Aug 07:47:11 07:50:54 30° 101° (E) 07:54:40 437.475
STRAND 1 05 Aug 07:50:19 07:53:21 15° 259° (W) 07:56:04 437.568
AAUSAT CUBESAT 2 05 Aug 07:53:51 07:56:20 16° 100° (E) 07:59:01 437.432
GOMX 1 05 Aug 07:55:13 08:00:17 74° 282° (WNW) 08:05:41 467.674
CANX-2 05 Aug 07:55:54 07:59:59 48° 101° (E) 08:04:06 2200.000
JUGNU 05 Aug 07:56:24 08:02:14 62° 21° (NNE) 08:08:02 437.505
BRITE-PL 05 Aug 08:06:59 08:11:19 29° 279° (W) 08:15:50 437.365/2234.400
SRMSAT 05 Aug 08:08:12 08:13:02 26° 17° (NNE) 08:17:56 437.500
UWE-3 05 Aug 08:19:01 08:20:10 11° 99° (E) 08:21:42 435.000/436.395/437.385
BEESAT 2 05 Aug 08:26:34 08:30:30 70° 68° (ENE) 08:34:24 435.950
CINEMA 3 05 Aug 08:38:15 08:43:14 82° 101° (E) 08:48:18 145.822/145.860
RS-15 05 Aug 08:38:22 08:48:17 27° 245° (WSW) 08:57:29 29.354- 29.394
CUBEBUG 2 05 Aug 08:40:48 08:45:01 33° 101° (E) 08:49:18 437.445
M-CUBED/EXP-1 PRIME 05 Aug 08:43:48 08:46:38 21° 74° (ENE) 08:49:43 437.505
DELFI C3 05 Aug 08:44:22 08:46:57 17° 100° (E) 08:49:43 145.870
COMPASS 1 05 Aug 08:50:10 08:54:14 53° 281° (W) 08:58:17 437.405
AIST 2 05 Aug 08:51:52 08:54:43 19° 66° (ENE) 08:57:43 435.215
BEESAT 3 05 Aug 09:00:44 09:03:56 23° 247° (WSW) 09:07:02 437.485
HO-68 05 Aug 09:01:21 09:07:59 40° 283° (WNW) 09:14:32 435.675
DOVE 4 05 Aug 09:01:49 09:05:40 21° 279° (W) 09:09:24 437.250
